Погода в Триполи

Ливан     34°26′03″N   35°50′13″E
темп.,
°C
ветер,
м/с
пор.,
м/с
влажн.,
%
обл.,
%
осадки,
мм/ч
давл.,
гПа
погр.,
м
10 августа, ср
ср1000:00+28юз887517 0.3 10071047
03:00+27юз89732 0.5 10061070
06:00+27юз887675 0.5 10061025
09:00+28юз89670 0.7 10061173
12:00+28юз89680 0.0 10061086
15:00+28зюз910650 0.0 10061175
18:00+28юз99690 0.0 1005968
21:00+28юз99710 0.0 10051183
11 августа, чт
чт1100:00+28юз910720 0.0 10051057
03:00+28юз910762 0.1 10051010
06:00+28юз910710 0.0 10051008
09:00+28юз99710 0.0 1006975
12:00+28юз910720 0.0 1006912
15:00+28зюз99710 0.0 1006946
18:00+28юз77720 0.0 1006718
21:00+28юз55700 0.0 1007707
12 августа, пт
пт1200:00+28юз55690 0.0 1007651
03:00+28юз55680 0.0 1006662
06:00+27юз55670 0.0 1007690
09:00+27зюз44660 0.0 1008719
12:00+28зюз44640 0.0 1008634
15:00+28зюз44630 0.0 1007679
18:00+28зюз44610 0.0 1007682
21:00+28юз34610 0.0 1007652
13 августа, сб
сб1300:00+27зюз44610 0.0 1007722
03:00+27юз45610 0.0 1007843
06:00+27юз55620 0.0 1007816
09:00+27юз66630 0.0 1007845
12:00+27юз66650 0.0 1007812
15:00+28юз67660 0.0 1006855
18:00+28юз77670 0.0 1006798
21:00+28юз67670 0.0 1006778
14 августа, вс
вс1400:00+27юз77690 0.0 1006904
03:00+27ююз78710 0.0 1005966
06:00+27ююз88720 0.0 1005854
09:00+28юз88710 0.0 1006961
12:00+28юз88710 0.0 1006891
15:00+28юз88720 0.0 1005849
18:00+28юз88740 0.0 1005834
21:00+28юз77750 0.0 1005790